Time,TemperatureF,DewpointF,PressureIn,WindDirection,WindDirectionDegrees,WindSpeedMPH,WindSpeedGustMPH,Humidity,HourlyPrecipIn,Conditions,Clouds,dailyrainin,SoftwareType,DateUTC
2013-11-06 00:00:00,45.1,33.7,30.15,West,271,1.0,6.0,64,0.00,,SKC,0.00,VWS V14.01,2013-11-06 05:00:00,
2013-11-06 00:01:00,45.1,33.7,30.15,West,271,0.0,0.0,64,0.00,,SKC,0.00,VWS V14.01,2013-11-06 05:01:00,
2013-11-06 00:07:00,45.2,33.4,30.15,West,271,1.0,2.0,63,0.00,,SKC,0.00,VWS V14.01,2013-11-06 05:07:00,
2013-11-06 00:12:00,45.2,33.4,30.15,West,272,0.0,2.0,63,0.00,,SKC,0.00,VWS V14.01,2013-11-06 05:12:00,
2013-11-06 00:17:00,45.4,33.2,30.15,West,272,1.0,4.0,62,0.00,,SKC,0.00,VWS V14.01,2013-11-06 05:17:00,
2013-11-06 00:22:00,45.7,33.0,30.15,West,272,0.0,4.0,61,0.00,,SKC,0.00,VWS V14.01,2013-11-06 05:22:00,
2013-11-06 00:27:00,45.7,33.4,30.15,West,272,2.0,4.0,62,0.00,,SKC,0.00,VWS V14.01,2013-11-06 05:27:00,
2013-11-06 00:32:00,44.9,33.9,30.15,West,272,4.0,5.0,65,0.00,,SKC,0.00,VWS V14.01,2013-11-06 05:32:00,
2013-11-06 00:37:00,44.9,33.1,30.15,WNW,290,1.0,6.0,63,0.00,,SKC,0.00,VWS V14.01,2013-11-06 05:37:00,
2013-11-06 00:42:00,45.5,33.2,30.15,WNW,289,4.0,6.0,62,0.00,,SKC,0.00,VWS V14.01,2013-11-06 05:42:00,
2013-11-06 00:48:00,45.7,33.0,30.15,WNW,289,2.0,6.0,61,0.00,,SKC,0.00,VWS V14.01,2013-11-06 05:48:00,
2013-11-06 00:53:00,45.5,33.2,30.15,WNW,289,1.0,6.0,62,0.00,,SKC,0.00,VWS V14.01,2013-11-06 05:53:00,
2013-11-06 00:58:00,45.2,33.0,30.15,WNW,289,4.0,6.0,62,0.00,,SKC,0.00,VWS V14.01,2013-11-06 05:58:00,
2013-11-06 01:00:00,45.1,33.7,30.15,West,271,0.0,6.0,64,0.00,,SKC,0.00,VWS V14.01,2013-11-06 06:00:00,
2013-11-06 01:03:00,45.2,33.0,30.14,WNW,289,2.0,5.0,62,0.00,,SKC,0.00,VWS V14.01,2013-11-06 06:03:00,
2013-11-06 01:08:00,44.9,33.1,30.14,WNW,289,0.0,5.0,63,0.00,,SKC,0.00,VWS V14.01,2013-11-06 06:08:00,
2013-11-06 01:13:00,44.5,33.1,30.14,WNW,289,0.0,5.0,64,0.00,,SKC,0.00,VWS V14.01,2013-11-06 06:13:00,
2013-11-06 01:18:00,44.2,32.8,30.13,WNW,289,1.0,5.0,64,0.00,,SKC,0.00,VWS V14.01,2013-11-06 06:18:00,
2013-11-06 01:24:00,43.9,32.9,30.13,WNW,289,0.0,5.0,65,0.00,,SKC,0.00,VWS V14.01,2013-11-06 06:24:00,
2013-11-06 01:29:00,43.5,32.9,30.13,WNW,289,0.0,5.0,66,0.00,,SKC,0.00,VWS V14.01,2013-11-06 06:29:00,
2013-11-06 01:34:00,43.1,32.9,30.12,WNW,289,0.0,5.0,67,0.00,,SKC,0.00,VWS V14.01,2013-11-06 06:34:00,
2013-11-06 01:39:00,42.6,32.8,30.12,WNW,289,0.0,5.0,68,0.00,,SKC,0.00,VWS V14.01,2013-11-06 06:39:00,
2013-11-06 01:44:00,42.5,32.7,30.12,WNW,289,1.0,5.0,68,0.00,,SKC,0.00,VWS V14.01,2013-11-06 06:44:00,
2013-11-06 01:49:00,42.6,32.8,30.12,WNW,289,0.0,5.0,68,0.00,,SKC,0.00,VWS V14.01,2013-11-06 06:49:00,
2013-11-06 01:54:00,42.6,32.8,30.12,WNW,289,0.0,5.0,68,0.00,,SKC,0.00,VWS V14.01,2013-11-06 06:54:00,
2013-11-06 01:59:00,42.5,32.7,30.12,WNW,289,0.0,5.0,68,0.00,,SKC,0.00,VWS V14.01,2013-11-06 06:59:00,
2013-11-06 02:00:00,45.2,33.0,30.14,WNW,289,5.0,6.0,62,0.00,,SKC,0.00,VWS V14.01,2013-11-06 07:00:00,
2013-11-06 02:05:00,42.2,32.8,30.12,WNW,289,0.0,4.0,69,0.00,,SKC,0.00,VWS V14.01,2013-11-06 07:05:00,
2013-11-06 02:10:00,42.1,32.7,30.12,WNW,289,3.0,4.0,69,0.00,,SKC,0.00,VWS V14.01,2013-11-06 07:10:00,
2013-11-06 02:15:00,42.5,32.7,30.12,WNW,289,2.0,4.0,68,0.00,,SKC,0.00,VWS V14.01,2013-11-06 07:15:00,
2013-11-06 02:20:00,43.2,32.6,30.11,WNW,289,2.0,4.0,66,0.00,,SKC,0.00,VWS V14.01,2013-11-06 07:20:00,
2013-11-06 02:25:00,43.8,32.8,30.11,WNW,289,5.0,5.0,65,0.00,,SKC,0.00,VWS V14.01,2013-11-06 07:25:00,
2013-11-06 02:30:00,44.2,32.8,30.10,WNW,298,1.0,6.0,64,0.00,,SKC,0.00,VWS V14.01,2013-11-06 07:30:00,
2013-11-06 02:35:00,44.3,32.5,30.10,WNW,298,2.0,6.0,63,0.00,,SKC,0.00,VWS V14.01,2013-11-06 07:35:00,
2013-11-06 02:40:00,44.5,32.7,30.10,WNW,295,2.0,6.0,63,0.00,,SKC,0.00,VWS V14.01,2013-11-06 07:40:00,
2013-11-06 02:45:00,44.5,32.7,30.10,WNW,295,1.0,6.0,63,0.00,,SKC,0.00,VWS V14.01,2013-11-06 07:45:00,
2013-11-06 02:50:00,44.2,32.4,30.10,WNW,295,2.0,6.0,63,0.00,,SKC,0.00,VWS V14.01,2013-11-06 07:50:00,
2013-11-06 02:56:00,44.1,32.7,30.10,WNW,295,0.0,6.0,64,0.00,,SKC,0.00,VWS V14.01,2013-11-06 07:56:00,
2013-11-06 03:00:00,42.3,32.5,30.12,WNW,289,0.0,5.0,68,0.00,,SKC,0.00,VWS V14.01,2013-11-06 08:00:00,
2013-11-06 03:01:00,43.8,32.8,30.10,WNW,295,0.0,6.0,65,0.00,,SKC,0.00,VWS V14.01,2013-11-06 08:01:00,
2013-11-06 03:06:00,43.3,32.3,30.10,WNW,295,2.0,2.0,65,0.00,,SKC,0.00,VWS V14.01,2013-11-06 08:06:00,
2013-11-06 03:11:00,43.1,32.9,30.10,WNW,295,2.0,4.0,67,0.00,,SKC,0.00,VWS V14.01,2013-11-06 08:11:00,
2013-11-06 03:16:00,43.2,33.0,30.10,WNW,295,2.0,4.0,67,0.00,,SKC,0.00,VWS V14.01,2013-11-06 08:16:00,
2013-11-06 03:21:00,43.6,33.0,30.10,WNW,295,2.0,4.0,66,0.00,,SKC,0.00,VWS V14.01,2013-11-06 08:21:00,
2013-11-06 03:26:00,43.9,32.9,30.10,WNW,295,2.0,4.0,65,0.00,,SKC,0.00,VWS V14.01,2013-11-06 08:26:00,
2013-11-06 03:31:00,44.1,33.1,30.10,WNW,295,4.0,4.0,65,0.00,,SKC,0.00,VWS V14.01,2013-11-06 08:31:00,
2013-11-06 03:36:00,44.2,33.2,30.10,WNW,295,3.0,4.0,65,0.00,,SKC,0.00,VWS V14.01,2013-11-06 08:36:00,
2013-11-06 03:41:00,44.3,33.3,30.10,WNW,295,3.0,4.0,65,0.00,,SKC,0.00,VWS V14.01,2013-11-06 08:41:00,
2013-11-06 03:47:00,44.3,33.7,30.09,WNW,295,4.0,5.0,66,0.00,,SKC,0.00,VWS V14.01,2013-11-06 08:47:00,
2013-11-06 03:52:00,44.6,33.6,30.09,WNW,295,4.0,5.0,65,0.00,,SKC,0.00,VWS V14.01,2013-11-06 08:52:00,
2013-11-06 03:57:00,44.8,33.8,30.09,WNW,295,2.0,5.0,65,0.00,,SKC,0.00,VWS V14.01,2013-11-06 08:57:00,
2013-11-06 04:00:00,43.8,32.8,30.10,WNW,295,0.0,6.0,65,0.00,,SKC,0.00,VWS V14.01,2013-11-06 09:00:00,
2013-11-06 04:02:00,44.8,33.8,30.09,WNW,295,1.0,1.0,65,0.00,,SKC,0.00,VWS V14.01,2013-11-06 09:02:00,
2013-11-06 04:07:00,44.3,33.7,30.09,WNW,295,0.0,3.0,66,0.00,,SKC,0.00,VWS V14.01,2013-11-06 09:07:00,
2013-11-06 04:12:00,43.8,33.6,30.09,WNW,295,1.0,3.0,67,0.00,,SKC,0.00,VWS V14.01,2013-11-06 09:12:00,
2013-11-06 04:17:00,43.6,34.1,30.08,WNW,295,4.0,4.0,69,0.00,,SKC,0.00,VWS V14.01,2013-11-06 09:17:00,
2013-11-06 04:22:00,44.1,34.2,30.08,WNW,295,2.0,5.0,68,0.00,,SKC,0.00,VWS V14.01,2013-11-06 09:22:00,
2013-11-06 04:27:00,44.8,34.2,30.08,WNW,295,1.0,5.0,66,0.00,,SKC,0.00,VWS V14.01,2013-11-06 09:27:00,
2013-11-06 04:32:00,45.1,34.0,30.09,WNW,295,0.0,5.0,65,0.00,,SKC,0.00,VWS V14.01,2013-11-06 09:32:00,
2013-11-06 04:38:00,44.9,33.9,30.09,WNW,295,2.0,5.0,65,0.00,,SKC,0.00,VWS V14.01,2013-11-06 09:38:00,
2013-11-06 04:43:00,44.5,33.9,30.09,WNW,295,2.0,5.0,66,0.00,,SKC,0.00,VWS V14.01,2013-11-06 09:43:00,
2013-11-06 04:48:00,43.8,34.3,30.08,WNW,295,5.0,5.0,69,0.00,,SKC,0.00,VWS V14.01,2013-11-06 09:48:00,
2013-11-06 04:53:00,43.9,34.4,30.08,WNW,295,5.0,5.0,69,0.00,,SKC,0.00,VWS V14.01,2013-11-06 09:53:00,
2013-11-06 04:58:00,44.5,34.6,30.08,WNW,295,5.0,6.0,68,0.00,,SKC,0.00,VWS V14.01,2013-11-06 09:58:00,
2013-11-06 05:00:00,44.8,33.8,30.09,WNW,295,0.0,5.0,65,0.00,,SKC,0.00,VWS V14.01,2013-11-06 10:00:00,
2013-11-06 05:03:00,45.1,34.4,30.07,WNW,295,5.0,6.0,66,0.00,,SKC,0.00,VWS V14.01,2013-11-06 10:03:00,
2013-11-06 05:08:00,45.2,34.5,30.07,WNW,295,4.0,6.0,66,0.00,,SKC,0.00,VWS V14.01,2013-11-06 10:08:00,
2013-11-06 05:13:00,45.2,34.5,30.07,WNW,295,4.0,6.0,66,0.00,,SKC,0.00,VWS V14.01,2013-11-06 10:13:00,
2013-11-06 05:19:00,45.2,34.5,30.07,WNW,295,4.0,6.0,66,0.00,,SKC,0.00,VWS V14.01,2013-11-06 10:19:00,
2013-11-06 05:24:00,45.1,34.4,30.07,WNW,295,4.0,6.0,66,0.00,,SKC,0.00,VWS V14.01,2013-11-06 10:24:00,
2013-11-06 05:29:00,45.2,34.5,30.07,WNW,295,4.0,6.0,66,0.00,,SKC,0.00,VWS V14.01,2013-11-06 10:29:00,
2013-11-06 05:34:00,45.5,34.4,30.08,WNW,295,4.0,6.0,65,0.00,,SKC,0.00,VWS V14.01,2013-11-06 10:34:00,
2013-11-06 05:39:00,45.5,34.4,30.08,WNW,295,2.0,6.0,65,0.00,,SKC,0.00,VWS V14.01,2013-11-06 10:39:00,
2013-11-06 05:44:00,45.2,34.5,30.08,WNW,295,4.0,6.0,66,0.00,,SKC,0.00,VWS V14.01,2013-11-06 10:44:00,
2013-11-06 05:49:00,45.1,34.8,30.08,WNW,295,6.0,6.0,67,0.00,,SKC,0.00,VWS V14.01,2013-11-06 10:49:00,
2013-11-06 05:54:00,45.5,35.2,30.08,WNW,301,6.0,6.0,67,0.00,,SKC,0.00,VWS V14.01,2013-11-06 10:54:00,
2013-11-06 06:00:00,46.0,35.3,30.08,WNW,302,5.0,6.0,66,0.00,,SKC,0.00,VWS V14.01,2013-11-06 11:00:00,
2013-11-06 06:05:00,46.2,35.1,30.08,WNW,302,5.0,5.0,65,0.00,,SKC,0.00,VWS V14.01,2013-11-06 11:05:00,
2013-11-06 06:10:00,46.1,35.4,30.08,WNW,302,5.0,6.0,66,0.00,,SKC,0.00,VWS V14.01,2013-11-06 11:10:00,
2013-11-06 06:15:00,46.0,35.3,30.07,WNW,302,6.0,7.0,66,0.00,,SKC,0.00,VWS V14.01,2013-11-06 11:15:00,
2013-11-06 06:20:00,46.1,35.4,30.07,NW,304,7.0,7.0,66,0.00,,SKC,0.00,VWS V14.01,2013-11-06 11:20:00,
2013-11-06 06:25:00,46.2,35.5,30.07,NW,307,7.0,7.0,66,0.00,,SKC,0.00,VWS V14.01,2013-11-06 11:25:00,
2013-11-06 06:30:00,46.4,35.7,30.06,NW,307,5.0,7.0,66,0.00,,SKC,0.00,VWS V14.01,2013-11-06 11:30:00,
2013-11-06 06:35:00,46.1,35.8,30.06,NW,307,5.0,7.0,67,0.00,,SKC,0.00,VWS V14.01,2013-11-06 11:35:00,
2013-11-06 06:40:00,46.1,35.4,30.06,NW,307,3.0,7.0,66,0.00,,SKC,0.00,VWS V14.01,2013-11-06 11:40:00,
2013-11-06 06:45:00,46.0,35.7,30.06,NW,307,5.0,7.0,67,0.00,,SKC,0.00,VWS V14.01,2013-11-06 11:45:00,
2013-11-06 06:50:00,45.8,35.1,30.06,NW,307,4.0,7.0,66,0.00,,SKC,0.00,VWS V14.01,2013-11-06 11:50:00,
2013-11-06 06:56:00,45.8,35.5,30.06,NW,307,3.0,7.0,67,0.00,,SKC,0.00,VWS V14.01,2013-11-06 11:56:00,
2013-11-06 07:00:00,46.1,35.0,30.08,WNW,302,4.0,6.0,65,0.00,,SKC,0.00,VWS V14.01,2013-11-06 12:00:00,
2013-11-06 07:01:00,45.7,35.0,30.06,NW,307,1.0,7.0,66,0.00,,SKC,0.00,VWS V14.01,2013-11-06 12:01:00,
2013-11-06 07:06:00,45.7,35.4,30.06,NW,307,3.0,4.0,67,0.00,,SKC,0.00,VWS V14.01,2013-11-06 12:06:00,
2013-11-06 07:11:00,45.5,35.6,30.06,NW,307,4.0,4.0,68,0.00,,SKC,0.00,VWS V14.01,2013-11-06 12:11:00,
2013-11-06 07:16:00,45.7,35.8,30.05,NW,307,2.0,5.0,68,0.00,,SKC,0.00,VWS V14.01,2013-11-06 12:16:00,
2013-11-06 07:21:00,45.8,35.8,30.05,NW,307,4.0,5.0,68,0.00,,SKC,0.00,VWS V14.01,2013-11-06 12:21:00,
2013-11-06 07:26:00,46.0,36.0,30.05,NW,307,4.0,5.0,68,0.00,,SKC,0.00,VWS V14.01,2013-11-06 12:26:00,
2013-11-06 07:31:00,46.2,36.2,30.05,NW,307,5.0,6.0,68,0.00,,SKC,0.00,VWS V14.01,2013-11-06 12:31:00,
2013-11-06 07:36:00,46.7,36.7,30.05,NW,307,5.0,6.0,68,0.00,,SKC,0.00,VWS V14.01,2013-11-06 12:36:00,
2013-11-06 07:41:00,47.1,37.1,30.05,NW,307,6.0,7.0,68,0.00,,SKC,0.00,VWS V14.01,2013-11-06 12:41:00,
2013-11-06 07:47:00,47.6,37.2,30.04,NW,307,4.0,7.0,67,0.00,,SKC,0.00,VWS V14.01,2013-11-06 12:47:00,
2013-11-06 07:52:00,47.9,37.5,30.04,NW,307,6.0,7.0,67,0.00,,SKC,0.00,VWS V14.01,2013-11-06 12:52:00,
2013-11-06 07:57:00,48.2,37.8,30.04,NW,309,7.0,9.0,67,0.00,,SKC,0.00,VWS V14.01,2013-11-06 12:57:00,
2013-11-06 08:00:00,45.7,35.0,30.06,NW,307,1.0,7.0,66,0.00,,SKC,0.00,VWS V14.01,2013-11-06 13:00:00,
2013-11-06 08:02:00,48.5,38.1,30.04,NW,309,6.0,7.0,67,0.00,,SKC,0.00,VWS V14.01,2013-11-06 13:02:00,
2013-11-06 08:07:00,48.8,38.3,30.04,NW,309,5.0,7.0,67,0.00,,SKC,0.00,VWS V14.01,2013-11-06 13:07:00,
2013-11-06 08:12:00,48.9,38.4,30.04,NW,309,5.0,7.0,67,0.00,,SKC,0.00,VWS V14.01,2013-11-06 13:12:00,
2013-11-06 08:17:00,49.1,38.2,30.04,NW,309,5.0,7.0,66,0.00,,SKC,0.00,VWS V14.01,2013-11-06 13:17:00,
2013-11-06 08:22:00,49.2,38.7,30.04,NW,309,6.0,7.0,67,0.00,,SKC,0.00,VWS V14.01,2013-11-06 13:22:00,
2013-11-06 08:27:00,49.5,39.0,30.04,NW,309,6.0,8.0,67,0.00,,SKC,0.00,VWS V14.01,2013-11-06 13:27:00,
2013-11-06 08:33:00,49.8,38.5,30.03,NW,309,7.0,8.0,65,0.00,,SKC,0.00,VWS V14.01,2013-11-06 13:33:00,
2013-11-06 08:38:00,50.1,39.6,30.03,NW,309,6.0,8.0,67,0.00,,SKC,0.00,VWS V14.01,2013-11-06 13:38:00,
2013-11-06 08:43:00,50.8,40.2,30.03,NW,309,7.0,8.0,67,0.00,,SKC,0.00,VWS V14.01,2013-11-06 13:43:00,
2013-11-06 08:48:00,51.4,40.8,30.02,NW,313,6.0,8.0,67,0.00,,SKC,0.00,VWS V14.01,2013-11-06 13:48:00,
2013-11-06 08:53:00,51.9,40.5,30.02,NW,321,4.0,8.0,65,0.00,,SKC,0.00,VWS V14.01,2013-11-06 13:53:00,
2013-11-06 08:58:00,52.2,41.2,30.02,NW,322,7.0,8.0,66,0.00,,SKC,0.00,VWS V14.01,2013-11-06 13:58:00,
2013-11-06 09:00:00,48.3,37.9,30.04,NW,309,5.0,9.0,67,0.00,,SKC,0.00,VWS V14.01,2013-11-06 14:00:00,
2013-11-06 09:03:00,52.5,41.5,30.02,NW,322,6.0,7.0,66,0.00,,SKC,0.00,VWS V14.01,2013-11-06 14:03:00,
2013-11-06 09:08:00,52.8,41.4,30.02,NNW,339,6.0,8.0,65,0.00,,SKC,0.00,VWS V14.01,2013-11-06 14:08:00,
2013-11-06 09:13:00,52.9,41.5,30.02,NW,313,7.0,10.0,65,0.00,,SKC,0.00,VWS V14.01,2013-11-06 14:13:00,
2013-11-06 09:18:00,53.1,41.7,30.01,NNW,331,6.0,10.0,65,0.00,,SKC,0.00,VWS V14.01,2013-11-06 14:18:00,
2013-11-06 09:24:00,53.1,42.1,30.01,NNW,327,7.0,10.0,66,0.00,,SKC,0.00,VWS V14.01,2013-11-06 14:24:00,
2013-11-06 09:29:00,53.3,41.8,30.01,NW,321,7.0,10.0,65,0.00,,SKC,0.00,VWS V14.01,2013-11-06 14:29:00,
2013-11-06 09:34:00,53.6,42.1,30.01,NW,324,6.0,10.0,65,0.00,,SKC,0.00,VWS V14.01,2013-11-06 14:34:00,
2013-11-06 09:39:00,53.9,42.8,30.01,NW,315,8.0,10.0,66,0.00,,SKC,0.00,VWS V14.01,2013-11-06 14:39:00,
2013-11-06 09:44:00,54.4,42.9,30.01,NW,320,6.0,10.0,65,0.00,,SKC,0.00,VWS V14.01,2013-11-06 14:44:00,
2013-11-06 09:49:00,54.7,43.2,30.00,NW,318,5.0,10.0,65,0.00,,SKC,0.00,VWS V14.01,2013-11-06 14:49:00,
2013-11-06 09:54:00,55.3,43.3,30.00,NW,326,7.0,10.0,64,0.00,,SKC,0.00,VWS V14.01,2013-11-06 14:54:00,
2013-11-06 09:59:00,55.7,43.3,30.00,NNW,332,7.0,10.0,63,0.00,,SKC,0.00,VWS V14.01,2013-11-06 14:59:00,
2013-11-06 10:00:00,52.3,41.7,30.02,NW,322,5.0,8.0,67,0.00,,SKC,0.00,VWS V14.01,2013-11-06 15:00:00,
2013-11-06 10:04:00,56.0,43.6,29.99,NNW,333,7.0,8.0,63,0.00,,SKC,0.00,VWS V14.01,2013-11-06 15:04:00,
2013-11-06 10:09:00,56.3,43.9,29.99,NNW,334,5.0,9.0,63,0.00,,SKC,0.00,VWS V14.01,2013-11-06 15:09:00,
2013-11-06 10:15:00,56.7,44.3,29.99,NW,311,7.0,9.0,63,0.00,,SKC,0.00,VWS V14.01,2013-11-06 15:15:00,
2013-11-06 10:20:00,57.0,44.1,29.99,NW,321,7.0,9.0,62,0.00,,SKC,0.00,VWS V14.01,2013-11-06 15:20:00,
2013-11-06 10:25:00,57.3,44.0,29.99,NW,316,8.0,10.0,61,0.00,,SKC,0.00,VWS V14.01,2013-11-06 15:25:00,
2013-11-06 10:30:00,57.6,44.3,29.99,NW,315,6.0,10.0,61,0.00,,SKC,0.00,VWS V14.01,2013-11-06 15:30:00,
2013-11-06 10:35:00,57.8,44.0,29.99,NNW,329,8.0,11.0,60,0.00,,SKC,0.00,VWS V14.01,2013-11-06 15:35:00,
2013-11-06 10:40:00,57.6,43.8,29.99,NNW,344,6.0,11.0,60,0.00,,SKC,0.00,VWS V14.01,2013-11-06 15:40:00,
2013-11-06 10:45:00,57.6,43.8,29.99,NW,320,7.0,11.0,60,0.00,,SKC,0.00,VWS V14.01,2013-11-06 15:45:00,
2013-11-06 10:50:00,58.0,44.2,29.99,NW,319,5.0,11.0,60,0.00,,SKC,0.00,VWS V14.01,2013-11-06 15:50:00,
2013-11-06 10:56:00,58.4,46.7,29.99,NW,322,6.0,11.0,65,0.00,,SKC,0.00,VWS V14.01,2013-11-06 15:56:00,
2013-11-06 11:00:00,55.7,42.9,29.99,NW,314,6.0,10.0,62,0.00,,SKC,0.00,VWS V14.01,2013-11-06 16:00:00,
2013-11-06 11:01:00,58.9,44.6,29.99,NNW,333,8.0,11.0,59,0.00,,SKC,0.00,VWS V14.01,2013-11-06 16:01:00,
2013-11-06 12:00:00,58.9,44.6,29.99,NNW,333,8.0,11.0,59,0.00,,SKC,0.00,VWS V14.01,2013-11-06 17:00:00,